This demonstration page uses our WeatherBlox Daily Observations layout. Learn more.

Left ArrowRight Arrow

41.12389, -100.76542

Hourly Observations for September 15, 2020

Temp ( °F °C ) Dew Point ( °F °C ) Humidity (%) Winds ( mph kmh ) Pressure ( in mb ) Visibility ( mi km ) Precip ( " mm )
12:53 am 00:53 Clear 66 18.9 51 10.6 59 59 SE 7 11 30.14 1021 10 16 0.00 0.00
1:53 am 01:53 Clear 63 17.2 51 10.6 65 65 SSE 5 7 30.14 1021 10 16 0.00 0.00
2:53 am 02:53 Clear 61 16.1 51 10.6 70 70 SSE 6 9 30.14 1021 10 16 0.00 0.00
3:53 am 03:53 Clear 59 15 51 10.6 75 75 S 7 11 30.12 1020 10 16 0.00 0.00
4:53 am 04:53 Clear 54 12.2 49 9.4 83 83 SE 3 6 30.11 1020 10 16 0.00 0.00
5:53 am 05:53 Clear 53 11.7 49 9.4 86 86 SE 5 7 30.11 1020 10 16 0.00 0.00
6:53 am 06:53 Clear 53 11.7 49 9.4 86 86 ESE 3 6 30.11 1020 10 16 0.00 0.00
7:53 am 07:53 Sunny 50 10 48 8.9 93 93 Calm 30.12 1020 10 16 0.00 0.00
8:53 am 08:53 Sunny 55 12.8 51 10.6 87 87 Calm 30.12 1020 10 16 0.00 0.00
9:53 am 09:53 Sunny 61 16.1 53 11.7 75 75 SSW 3 6 30.10 1019 10 16 0.00 0.00
10:53 am 10:53 Sunny 68 20 55 12.8 63 63 S 6 9 30.08 1019 10 16 0.00 0.00
11:53 am 11:53 Sunny 75 23.9 55 12.8 50 50 S 7 11 30.06 1018 10 16 0.00 0.00
12:53 pm 12:53 Sunny 82 27.8 55 12.8 40 40 S 13 20 30.03 1017 10 16 0.00 0.00
1:53 pm 13:53 Sunny 85 29.4 53 11.7 33 33 S 9 15 30.01 1016 10 16 0.00 0.00
2:53 pm 14:53 Sunny 86 30 54 12.2 33 33 S 13 20 30.00 1016 10 16 0.00 0.00
3:53 pm 15:53 Sunny 88 31.1 54 12.2 31 31 S 8 13 29.98 1015 10 16 0.00 0.00
4:53 pm 16:53 Sunny 88 31.1 53 11.7 30 30 S 13 20 29.96 1015 10 16 0.00 0.00
5:53 pm 17:53 Sunny 86 30 52 11.1 31 31 SSE 7 11 29.96 1015 10 16 0.00 0.00
6:53 pm 18:53 Sunny 79 26.1 55 12.8 44 44 ESE 7 11 29.97 1015 10 16 0.00 0.00
7:53 pm 19:53 Clear 74 23.3 52 11.1 46 46 SE 8 13 29.98 1015 10 16 0.00 0.00
8:53 pm 20:53 Clear 66 18.9 52 11.1 61 61 E 8 13 30.00 1016 10 16 0.00 0.00
9:53 pm 21:53 Clear 62 16.7 52 11.1 70 70 ESE 8 13 30.01 1016 10 16 0.00 0.00
10:53 pm 22:53 Clear 65 18.3 51 10.6 61 61 ESE 5 7 29.99 1016 10 16 0.00 0.00
11:53 pm 23:53 Clear 67 19.4 51 10.6 57 57 S 7 11 29.98 1015 10 16 0.00 0.00

Powered by AerisWeather